Location: Newark
(47.0749°S, 167.3048°W)
Time: 00:14:13
(UTC+00:00)

Envisat - Visible Passes

Search period start: 19 January 2020 00:00
Search period end: 29 January 2020 00:00
Orbit: 764 x 766 km, 98.1° (Epoch: 18 January)

Date Brightness Start Highest point End Pass type
(mag) Time Alt. Az. Time Alt. Az. Time Alt. Az.
21 Jan 6.4 07:51:51 10° SSW 07:54:13 13° SW 07:56:35 10° W visible
24 Jan 6.2 07:40:02 10° SSW 07:43:05 16° WSW 07:46:08 10° W visible
25 Jan 6.7 15:05:15 10° ESE 15:07:15 12° SE 15:09:17 10° SSE visible
26 Jan 6.8 08:08:03 10° SW 08:08:09 10° SW 08:08:15 10° SW visible
27 Jan 6.1 07:28:22 10° SSW 07:31:57 19° WSW 07:35:30 10° WNW visible
